Home   Weather   Fort Smith   Past weeks
Flag for Canada

Past Weather in Fort Smith, Northwest Territories, Canada — Yesterday and Last 2 Weeks

Now
61 °F

Light rain. Mostly cloudy.


Feels Like: 61 °F
Forecast: 66 / 48 °F
Wind: 7 mph from South

Location: Fort Smith

Current Time: Aug 22, 2019 at 5:24:30 am

Latest Report: Aug 22, 2019 at 5:00 am


Visibility: 12 mi

Pressure: 29.51 "Hg

Humidity: 77%

Dew Point: 54 °F

Location of Fort SmithLocation

Past Weather in Fort Smith — Graph

°F

Fort Smith Temperature Yesterday

Maximum temperature yesterday: 77 °F (at 6:00 pm)
Minimum temperature yesterday: 52 °F (at 6:00 am)
Average temperature yesterday: 64 °F

High & Low Weather Summary for the Past Weeks

 TemperatureHumidityPressure
High77 °F (Aug 21, 6:00 pm)100% (Aug 8, 5:00 am)30.21 "Hg (Aug 8, 5:00 am)
Low41 °F (Aug 12, 6:00 am)25% (Aug 12, 4:00 pm)29.52 "Hg (Aug 22, 3:00 am)
Average56 °F77%29.93 "Hg
* Reported Aug 7 4:00 am — Aug 22 4:00 am, Fort Smith. Weather by CustomWeather, © 2019

Note: Actual official high and low records may vary slightly from our data, if they occured in-between our weather recording intervals... More about our weather records

Advertising

Fort Smith Weather History for the Previous 24 Hours

Scroll right to see more
 ConditionsComfort  
Time TempWeatherWind HumidityBarometerVisibility
4:00 am
Thu, Aug 22
64 °FPassing clouds.10 mph64%29.52 "Hg15 mi
3:00 am64 °FPartly cloudy.13 mph60%29.52 "Hg15 mi
2:00 am64 °FPartly cloudy.13 mph60%29.52 "Hg15 mi
1:00 am66 °FPassing clouds.17 mph56%29.53 "Hg15 mi
12:00 am66 °FPassing clouds.15 mph56%29.54 "Hg15 mi
11:00 pm
Wed, Aug 21
68 °FPassing clouds.10 mph49%29.57 "Hg15 mi
10:00 pm68 °FPartly cloudy.10 mph53%29.59 "Hg15 mi
9:00 pm70 °FPartly sunny.15 mph46%29.59 "Hg15 mi
8:00 pm73 °FPartly sunny.13 mph41%29.60 "Hg15 mi
7:00 pm75 °FPartly sunny.18 mph39%29.62 "Hg15 mi
6:00 pm77 °FPartly sunny.22 mph36%29.63 "Hg15 mi
5:00 pm75 °FBroken clouds.21 mph39%29.66 "Hg15 mi
4:00 pm72 °FMostly cloudy.15 mph44%29.69 "Hg15 mi
3:00 pm72 °FBroken clouds.21 mph44%29.72 "Hg15 mi
2:00 pm72 °FPartly sunny.12 mph47%29.77 "Hg15 mi
1:00 pm70 °FPartly sunny.17 mph46%29.81 "Hg15 mi
12:00 pm66 °FBroken clouds.15 mph52%29.84 "Hg15 mi
11:00 am63 °FBroken clouds.15 mph59%29.89 "Hg15 mi
10:00 am61 °FPartly sunny.13 mph59%29.92 "Hg15 mi
9:00 am59 °FCloudy.10 mph63%29.95 "Hg15 mi
8:00 am55 °FMore clouds than sun.12 mph72%29.98 "Hg15 mi
7:00 am54 °FBroken clouds.13 mph72%30.00 "Hg15 mi
6:00 am52 °FBroken clouds.9 mph77%30.02 "Hg15 mi
5:00 am54 °FPassing clouds.9 mph72%30.03 "Hg15 mi
Weather by CustomWeather, © 2019

See weather overview